Notices

What's New in latest Release from April 7th, 2021:

- Updated Glossary, including Speed of Maximum Gust, and Total Hourly Precipitation

- Updated national and regional climate services offices contacts and prices information

- Addition of station inventory lists for 1981-2010, 1971-2000, and 1961-1990 Normals.

If you haven't already, please take our survey and provide feedback about our website: https://eccc.sondage-survey.ca/f/LanguageSelection.aspx?s=442ca660-fcf1-47c0-95a9-59707d6fd709

Hourly Data Report for April 20, 2016

MIRAMICHI RCS
NEW BRUNSWICK

47°00'34.000" N
65°27'54.000" W
33.00 m
8100989
71744
ACQ

Download Data

Hourly Data (April 2016)
Hourly Data Report for April 20, 2016
TIME
LST
Temp Definition
°C
Dew Point Definition
°C
Rel Hum Definition
%
Precip. Amount Definition
mm

Wind Dir Definition
10's deg

Wind Spd Definition
km/h
Visibility Definition
km
Stn Press Definition
kPa
Hmdx Definition


Wind Chill Definition


Weather Definition


00:00 0.6 -4.1 71 0.0 3 3   101.28     LegendNANA
01:00 -0.8 -3.9 79 0.0 18 1   101.29   -1 LegendNANA
02:00 -0.9 -4.6 76 0.0 1 3   101.28   -2 LegendNANA
03:00 -1.8 -4.0 85 0.0 28 2   101.31   -3 LegendNANA
04:00 -2.1 -4.9 81 0.0 32 2   101.34   -3 LegendNANA
05:00 0.3 -3.6 75 0.0 34 8   101.39     LegendNANA
06:00 0.4 -3.5 76 0.0 1 7   101.50     LegendNANA
07:00 1.9 -3.4 68 0.0 1 8   101.59     LegendNANA
08:00 4.2 -3.4 57 0.0 36 10   101.66     LegendNANA
09:00 6.2 -4.5 46 0.0 2 14   101.71     LegendNANA
10:00 6.9 -5.8 40 0.0 3 20   101.73     LegendNANA
11:00 7.3 -5.0 41 0.0 3 18   101.70     LegendNANA
12:00 7.3 -5.1 41 0.0 2 15   101.67     LegendNANA
13:00 7.6 -4.5 42 0.0 3 16   101.65     LegendNANA
14:00 8.1 -4.4 41 0.0 3 9   101.62     LegendNANA
15:00 8.5 -4.5 39 0.0 36 9   101.56     LegendNANA
16:00 8.9 -5.3 36 0.0 1 9   101.50     LegendNANA
17:00 9.4 -6.2 33 0.0 35 12   101.45     LegendNANA
18:00 8.9 -4.9 37 0.0 4 9   101.41     LegendNANA
19:00 6.9 -4.4 44 0.0 10 5   101.41     LegendNANA
20:00 3.4 -1.6 70 0.0 32 4   101.45     LegendNANA
21:00 3.1 -2.5 66 0.0 32 4   101.46     LegendNANA
22:00 1.6 -2.9 72 0.0 29 5   101.39     LegendNANA
23:00 3.3 -6.5 49 0.0 29 9   101.34     LegendNANA

Notes on Data Quality.

Legend

  • E = Estimated
  • M = Missing
  • NA = Not Available*
  • [empty] = Indicates an unobserved value
Date modified: